Temperature
30 31 31 31 32 31 31 31 31 31 31 31 31 30 30 28 27 26 25 24 23 22 22 21 20 20 19 19 19 19 19 19 19 18 18 18 18 18 18 18 18 18 18 18
31 31 31 31 31 31 31 31 31 31 31 30 31 30 30 29 28 27 26 25 24 23 22 21 21 20 20 19 19 19 19 19 19 19 19 18 18 18 18 18 18 18 18 18
30 31 31 31 31 31 31 31 31 30 30 31 30 30 30 30 28 27 26 25 25 24 23 22 21 21 20 20 19 19 19 19 19 19 18 18 18 18 18 18 18 18 18 18
31 31 30 30 31 31 30 31 31 30 30 31 30 30 30 30 29 28 27 26 25 25 24 23 22 21 21 20 20 20 20 20 19 19 19 19 18 19 19 18 18 18 18 18
30 30 30 30 30 31 31 31 30 30 30 30 31 30 31 31 30 30 28 27 26 25 24 23 23 22 21 21 20 20 20 20 20 19 19 19 18 18 18 18 18 18 18 18
31 31 31 30 30 30 30 30 30 30 31 29 30 30 30 31 30 30 29 27 26 25 25 24 23 22 21 21 21 20 20 20 20 20 19 19 19 19 18 18 18 18 18 18
29 30 30 30 30 30 30 30 30 29 29 30 30 30 30 30 30 29 29 28 27 26 25 24 23 22 22 21 21 20 20 20 20 20 20 19 19 19 19 19 18 18 19 19
29 29 30 30 30 30 30 31 29 29 29 30 29 30 30 30 29 28 28 27 26 26 25 24 24 23 22 21 21 20 20 20 20 20 20 20 19 19 18 19 18 18 18 19
30 29 30 30 30 30 30 30 31 30 30 29 30 30 30 30 29 29 28 27 26 26 25 25 24 23 22 21 21 20 20 20 20 20 20 20 19 19 19 19 19 18 18 18
30 29 30 29 30 29 30 31 30 30 28 28 29 30 30 30 29 29 28 27 26 25 25 24 24 23 22 22 21 21 20 20 20 20 20 19 19 19 19 19 18 19 18 18
30 29 29 29 29 29 29 29 29 30 29 29 29 30 30 29 28 28 28 27 25 25 24 24 23 23 22 22 21 21 20 20 19 19 19 19 19 19 19 19 19 19 18 18
29 29 29 29 29 29 30 29 29 29 28 28 29 29 29 29 28 27 27 25 24 24 24 23 23 23 22 22 21 21 20 20 19 19 19 19 19 19 19 19 19 19 18 18
28 28 27 28 28 28 29 29 29 29 29 29 29 29 29 28 27 26 25 25 24 23 23 23 22 22 22 21 21 21 20 20 20 19 19 19 19 19 19 19 19 19 18 18
27 28 28 28 29 29 28 28 29 29 29 28 28 29 28 28 27 26 25 24 23 22 22 22 22 21 21 21 20 20 20 20 20 19 19 19 19 19 19 19 18 18 18 18
27 27 28 28 29 29 28 28 28 28 28 28 28 28 28 27 26 25 24 23 22 22 21 21 21 20 20 20 19 19 20 20 19 19 19 19 19 19 18 18 18 18 18 18
26 26 27 27 27 28 27 28 28 28 28 28 28 28 28 26 24 23 23 22 22 21 21 20 20 20 19 19 19 19 19 19 19 19 19 19 18 18 18 18 18 18 18 18
26 25 25 26 27 27 26 27 27 27 27 27 27 27 26 25 24 23 22 22 21 21 20 20 19 19 19 19 18 18 18 18 18 18 18 18 18 18 18 18 18 18 18 18
24 24 25 26 25 24 27 27 27 27 26 26 26 25 24 24 22 21 21 21 21 20 20 19 19 19 19 18 18 18 18 18 18 18 18 18 18 18 18 18 18 18 18 17
24 24 25 25 25 25 26 25 25 25 25 25 25 24 23 22 22 22 20 20 19 19 19 19 19 19 18 18 18 18 18 18 18 18 18 18 18 18 18 18 17 17 17 17
23 23 24 24 24 24 25 25 24 24 24 24 23 23 22 22 24 23 19 19 19 18 18 18 18 18 18 18 18 18 17 17 17 17 17 17 17 17 17 17 17 17 17 16
23 23 23 23 23 25 24 23 23 23 23 22 22 21 21 22 21 20 18 18 18 17 17 17 17 17 17 17 17 17 17 17 17 16 16 16 16 16 16 16 17 16 16 16
23 23 23 23 23 23 22 23 23 22 21 21 21 20 20 19 19 18 18 17 17 17 17 17 17 17 17 17 17 16 16 16 16 16 16 16 16 16 16 16 16 16 16 15
22 22 23 23 22 20 20 20 20 19 20 19 19 19 19 19 18 18 17 17 17 17 16 16 16 16 16 16 16 15 16 16 15 15 15 15 15 15 15 15 15 15 15 15
21 20 21 20 21 20 19 19 19 18 18 18 18 18 18 18 18 17 17 16 16 16 16 16 16 16 15 15 15 15 15 15 15 15 15 15 14 14 14 14 15 15 15 15
20 19 20 20 20 19 19 18 18 17 17 17 17 17 17 17 17 17 16 16 16 16 15 15 15 15 15 15 15 15 15 15 14 14 14 14 14 14 14 14 14 14 14 14
20 19 19 20 19 19 18 17 17 17 17 17 17 17 17 16 16 16 16 15 15 15 15 15 15 14 14 14 14 14 14 14 14 14 14 14 14 14 14 14 14 14 14 14
Wind_Speed
6 7 6 4 4 4 4 4 2 0 0 2 2 2 3 7 9 10 10 11 12 12 12 13 12 12 12 12 12 11 10 10 8 7 7 7 6 6 6 6 5 6 5 5
8 8 4 3 3 4 5 6 3 1 1 2 2 2 3 6 9 9 10 11 12 12 12 13 13 13 13 13 12 12 11 11 10 8 6 5 5 5 5 4 4 6 5 5
10 4 3 5 5 6 6 6 4 3 2 5 4 5 5 6 7 8 9 10 11 12 13 14 15 15 14 14 14 12 12 12 11 10 7 6 5 5 5 5 5 5 5 5
8 5 5 7 7 7 6 3 4 5 7 4 5 5 4 5 6 8 9 10 11 12 13 14 15 16 16 15 14 14 13 12 12 11 9 10 8 7 6 5 4 5 5 6
7 6 7 8 6 6 4 2 5 6 7 7 6 7 3 4 4 6 8 10 11 12 13 14 15 15 15 15 14 14 14 13 13 12 11 10 9 8 6 6 5 5 5 6
6 5 5 5 5 5 4 5 6 7 8 8 5 8 5 2 3 3 3 7 10 11 12 12 13 14 13 14 14 14 14 14 14 14 13 12 11 9 8 7 6 6 6 6
8 8 6 5 6 7 8 8 7 8 7 6 3 6 3 2 2 3 2 3 6 10 11 11 12 13 13 14 14 14 15 15 15 15 14 13 13 12 11 9 8 7 6 6
10 9 8 7 7 7 9 10 8 7 7 4 4 5 2 1 1 2 2 2 4 7 10 11 11 12 13 13 14 13 14 15 15 15 14 13 13 11 10 11 9 8 7 6
7 7 6 6 6 7 8 9 9 9 9 8 5 4 3 2 1 1 1 1 2 4 7 9 10 10 11 13 13 13 13 13 13 14 13 13 13 12 10 9 10 9 7 7
5 6 6 5 6 4 6 6 7 8 8 9 7 7 4 2 1 2 1 1 1 3 4 6 7 8 9 11 12 12 12 12 12 12 12 11 12 12 10 10 10 9 8 7
8 7 7 8 8 8 6 7 7 8 8 9 8 4 2 1 2 2 2 1 1 2 3 4 5 7 7 8 9 10 11 11 11 11 11 11 11 12 12 11 11 10 9 9
7 7 8 9 5 5 8 9 9 9 8 9 9 5 4 2 2 2 1 2 1 2 2 3 4 5 6 7 7 8 9 9 9 10 10 10 10 11 11 11 11 10 10 10
6 7 9 10 9 7 8 8 9 10 9 10 11 5 4 2 2 2 1 1 2 1 1 2 3 3 5 5 6 7 7 8 8 8 9 9 10 11 11 11 10 10 10 10
6 9 10 10 6 6 9 9 10 11 11 11 11 9 3 2 2 2 1 1 1 1 1 1 2 2 3 4 5 5 6 6 6 7 8 9 9 10 10 10 10 10 10 10
6 10 10 10 8 8 10 11 11 13 13 13 11 10 6 3 2 2 1 1 1 1 1 0 1 1 2 3 4 4 4 4 5 6 7 8 8 8 9 9 10 10 10 10
5 8 9 10 10 10 11 12 12 13 12 12 11 10 4 1 0 1 1 1 0 1 1 1 1 1 1 2 3 4 4 4 4 4 5 5 6 7 8 8 9 9 9 9
6 7 10 12 9 10 13 11 11 11 10 10 11 7 2 2 1 1 1 1 0 1 2 1 1 1 1 1 2 3 3 4 4 4 3 3 4 5 6 7 7 8 8 8
7 8 8 10 9 15 7 2 5 8 7 6 5 3 2 2 1 1 1 1 1 2 2 2 2 2 1 1 2 2 3 4 4 4 4 4 4 4 4 5 6 6 7 7
7 8 9 10 14 13 7 4 5 7 7 4 4 3 1 1 1 2 2 3 3 3 3 2 2 2 2 1 1 2 3 3 4 4 4 4 4 4 4 5 5 5 5 6
6 8 10 11 13 14 6 2 2 6 8 3 3 3 2 3 5 1 3 4 4 4 3 3 3 3 2 2 2 3 3 3 4 4 4 4 4 5 5 5 5 5 5 6
8 9 12 13 14 10 1 1 4 8 3 1 2 2 2 3 3 3 3 4 4 4 4 4 4 3 3 3 3 3 4 4 4 4 4 4 4 5 5 5 5 5 6 5
8 9 10 11 13 9 3 2 4 2 3 1 1 2 2 2 2 2 2 3 4 4 4 4 4 4 3 3 3 4 4 4 4 4 4 5 5 6 5 5 5 6 6 6
6 6 6 6 4 3 2 1 2 3 3 2 2 2 2 3 3 3 4 4 4 4 5 4 4 4 4 3 4 5 5 5 5 5 5 5 5 5 5 6 6 6 6 6
5 3 5 5 4 2 2 2 3 3 4 4 3 3 4 4 5 5 5 5 5 5 5 5 5 5 5 4 4 5 5 5 5 6 6 5 5 6 5 5 6 6 6 6
4 4 6 8 6 5 4 3 4 4 5 5 5 6 6 6 7 7 6 6 6 6 6 6 6 6 6 6 6 6 5 5 6 7 7 7 6 6 5 6 5 6 5 5
7 7 8 8 5 6 6 5 6 6 6 6 6 7 7 7 8 8 7 7 7 7 7 7 8 8 8 7 6 6 6 6 7 7 7 7 6 5 6 6 5 2 3 1
Wind_Direction
199 221 221 224 247 288 276 269 265 33 26 243 242 233 175 178 191 191 189 190 193 195 191 191 192 193 191 190 191 193 193 188 191 195 201 200 201 205 209 214 213 225 235 232
206 218 231 238 235 242 248 252 245 195 154 246 257 255 201 190 201 200 194 195 197 195 191 191 194 195 195 193 195 195 196 194 197 196 203 208 212 214 216 221 211 226 231 236
228 215 200 219 224 231 237 256 267 263 228 222 249 233 198 194 202 205 206 203 201 199 196 192 194 196 197 198 198 199 199 198 200 197 199 199 204 220 214 217 219 226 231 236
231 225 220 228 228 245 242 253 259 249 248 239 251 266 206 198 202 208 208 208 207 202 199 195 194 198 200 200 198 198 198 199 198 198 204 205 210 216 218 222 217 220 227 234
210 213 223 231 232 246 263 255 246 248 254 261 246 269 238 193 224 226 213 209 209 203 201 199 198 199 201 199 198 196 196 198 198 200 203 209 219 222 221 221 217 230 226 232
223 211 228 237 230 230 211 216 223 238 248 250 258 268 262 243 280 277 226 211 209 204 201 201 199 198 201 199 199 197 195 199 200 202 206 210 218 223 225 224 222 223 224 226
210 210 204 211 214 203 220 235 237 230 231 242 231 258 272 336 326 310 284 220 207 200 198 196 196 195 198 200 200 200 198 201 201 203 207 209 215 218 221 226 225 232 233 226
215 211 200 204 228 233 230 243 251 262 260 244 204 248 265 9 331 315 294 216 197 195 194 195 196 198 200 200 201 202 202 204 203 204 207 210 213 218 221 222 233 227 235 235
224 214 185 199 225 243 227 240 261 266 269 269 253 253 226 196 231 323 4 133 163 185 190 191 192 196 200 202 201 201 201 204 206 206 207 210 212 220 224 220 223 230 231 230
228 228 194 190 209 221 260 254 245 253 259 262 250 248 254 246 319 12 19 75 153 175 185 187 190 192 196 200 199 200 201 205 209 209 210 210 211 214 220 225 225 230 231 231
228 227 205 198 220 227 212 224 242 257 267 270 269 262 46 32 344 333 356 51 124 172 181 179 182 187 186 188 193 196 198 202 206 209 210 213 212 212 215 220 225 226 229 228
219 234 231 218 205 249 238 243 238 247 249 256 271 271 82 45 0 336 351 40 84 147 161 169 172 173 176 180 185 190 194 199 205 208 208 212 214 214 215 217 220 220 223 226
205 230 229 215 199 199 217 223 237 250 252 254 259 253 107 53 17 18 37 57 82 118 138 154 160 168 174 180 183 185 192 197 202 205 210 215 216 216 218 219 218 217 219 223
228 237 246 250 247 222 222 227 233 243 250 255 256 269 266 318 335 6 32 40 71 78 86 137 152 165 169 176 181 189 194 194 198 205 213 218 222 223 222 221 221 221 220 221
229 238 245 257 263 251 244 244 238 243 257 265 267 266 278 297 319 346 344 356 22 43 43 30 161 159 166 175 182 186 189 188 195 204 217 223 227 226 225 224 223 222 222 222
229 243 243 246 245 245 248 248 242 244 253 259 262 262 291 329 348 323 305 312 323 18 12 14 26 121 164 187 187 180 182 182 187 203 219 225 229 226 223 221 221 221 221 223
219 229 242 246 237 243 242 240 242 244 247 253 259 271 282 264 299 298 294 289 308 4 352 343 340 315 237 218 199 184 183 181 186 199 218 223 225 222 220 220 219 222 223 222
228 233 239 246 234 243 247 242 248 247 243 258 268 274 284 293 323 313 329 342 1 354 343 328 315 308 273 223 194 199 192 191 194 203 220 224 224 227 229 224 222 224 225 226
228 225 238 241 242 245 231 219 233 238 239 243 245 245 262 283 228 177 33 352 333 331 327 321 313 304 302 271 217 199 213 210 214 220 227 229 229 234 231 225 225 226 229 231
201 220 236 240 249 252 245 164 238 241 235 208 229 228 235 243 258 304 24 343 336 333 336 330 325 321 309 288 262 232 234 236 240 242 241 239 239 238 235 231 227 228 230 233
205 216 232 242 247 251 331 140 205 234 260 94 205 228 239 269 318 348 332 327 333 333 325 320 313 306 301 288 271 258 255 254 259 254 249 247 243 243 244 242 240 234 232 232
237 234 233 242 246 245 71 174 229 331 22 3 270 267 274 311 322 311 307 315 322 322 318 315 310 303 296 283 269 266 271 277 272 261 253 251 248 250 245 238 240 237 233 231
242 266 263 259 266 49 68 31 7 341 323 316 300 296 279 281 289 297 298 302 307 313 314 314 309 303 295 279 267 264 271 273 268 259 254 254 252 248 246 238 237 238 232 236
227 259 255 253 245 254 282 305 318 320 311 308 298 288 282 284 288 290 292 295 300 302 302 303 303 301 296 293 284 269 267 266 265 260 257 252 248 245 238 237 238 241 243 243
260 244 246 248 254 259 250 279 307 309 304 298 288 283 286 287 284 284 284 285 288 292 293 292 291 290 288 286 284 280 276 270 266 265 261 257 252 248 246 246 252 249 253 257
244 250 255 263 267 271 277 288 294 293 291 292 292 290 289 286 285 283 282 283 285 287 289 288 287 287 287 284 279 278 273 267 263 264 264 260 256 248 245 244 252 261 257 217
Height
1509 1506 1505 1503 1502 1503 1503 1505 1507 1507 1506 1506 1508 1509 1511 1516 1519 1521 1525 1528 1531 1533 1536 1539 1541 1544 1546 1548 1550 1552 1554 1556 1558 1560 1562 1564 1566 1567 1568 1569 1569 1570 1571 1571
1506 1505 1502 1502 1503 1504 1505 1507 1506 1506 1506 1507 1507 1507 1507 1512 1515 1518 1521 1524 1527 1530 1533 1536 1538 1541 1543 1545 1547 1549 1551 1554 1556 1558 1560 1562 1564 1565 1567 1567 1567 1568 1569 1569
1504 1502 1503 1505 1505 1506 1505 1506 1506 1508 1506 1505 1508 1508 1506 1508 1512 1516 1518 1521 1523 1526 1529 1532 1535 1537 1540 1542 1544 1547 1549 1551 1554 1556 1558 1560 1561 1563 1565 1565 1566 1566 1567 1568
1500 1501 1504 1504 1504 1504 1507 1502 1505 1507 1508 1507 1507 1514 1504 1502 1507 1510 1514 1517 1519 1522 1525 1528 1530 1533 1536 1538 1541 1543 1546 1548 1551 1553 1556 1557 1559 1561 1562 1563 1564 1564 1565 1565
1501 1501 1503 1504 1503 1503 1504 1503 1504 1504 1505 1507 1505 1510 1503 1499 1504 1504 1508 1512 1515 1518 1521 1523 1526 1529 1532 1535 1538 1540 1542 1545 1547 1550 1552 1554 1556 1558 1560 1561 1561 1562 1563 1563
1498 1501 1501 1501 1501 1502 1503 1505 1504 1503 1502 1516 1508 1511 1509 1497 1500 1500 1503 1507 1511 1514 1517 1520 1523 1526 1529 1532 1534 1536 1538 1540 1543 1546 1548 1550 1552 1554 1556 1557 1558 1559 1560 1561
1502 1499 1499 1501 1502 1503 1503 1506 1514 1516 1515 1513 1503 1508 1506 1497 1499 1501 1502 1505 1508 1511 1514 1517 1520 1523 1525 1528 1530 1533 1534 1536 1539 1541 1544 1546 1548 1550 1552 1554 1555 1556 1558 1558
1503 1504 1497 1498 1500 1500 1499 1500 1515 1523 1518 1507 1505 1507 1499 1496 1499 1501 1502 1504 1506 1508 1510 1513 1516 1519 1522 1524 1527 1529 1530 1532 1534 1537 1539 1542 1544 1546 1548 1550 1552 1553 1554 1556
1497 1501 1495 1497 1498 1497 1499 1498 1492 1501 1506 1510 1504 1499 1495 1495 1497 1499 1500 1502 1504 1506 1508 1511 1513 1516 1518 1520 1522 1524 1526 1528 1530 1533 1535 1538 1540 1542 1545 1547 1548 1550 1550 1552
1492 1501 1495 1498 1498 1499 1496 1493 1497 1502 1518 1519 1508 1503 1498 1495 1496 1497 1499 1501 1504 1505 1507 1509 1511 1513 1514 1517 1519 1521 1523 1525 1527 1529 1531 1534 1535 1537 1540 1543 1544 1545 1547 1548
1490 1499 1497 1497 1499 1497 1500 1500 1499 1498 1501 1512 1514 1503 1489 1494 1496 1498 1499 1501 1503 1504 1506 1508 1509 1511 1513 1514 1516 1518 1520 1522 1524 1526 1528 1529 1531 1533 1535 1537 1539 1541 1542 1543
1492 1493 1497 1494 1492 1494 1493 1494 1497 1506 1508 1505 1506 1503 1490 1493 1496 1498 1500 1502 1503 1504 1505 1506 1508 1509 1510 1512 1514 1515 1517 1518 1520 1522 1524 1526 1527 1529 1531 1533 1534 1536 1537 1539
1493 1495 1504 1501 1499 1496 1495 1494 1493 1493 1498 1501 1504 1500 1490 1494 1496 1499 1501 1502 1503 1504 1505 1505 1506 1507 1508 1510 1511 1513 1514 1516 1518 1519 1520 1522 1524 1525 1527 1529 1530 1532 1533 1534
1495 1491 1496 1499 1493 1489 1494 1494 1493 1494 1496 1497 1496 1494 1491 1493 1496 1499 1501 1503 1504 1504 1504 1505 1505 1506 1506 1507 1509 1510 1511 1513 1515 1516 1517 1519 1520 1521 1523 1525 1526 1527 1528 1530
1493 1492 1490 1488 1486 1486 1489 1491 1491 1493 1492 1494 1491 1490 1490 1493 1497 1500 1502 1503 1504 1504 1504 1504 1504 1504 1505 1506 1507 1507 1508 1510 1512 1513 1514 1515 1516 1518 1519 1520 1521 1523 1524 1525
1493 1493 1492 1493 1489 1488 1490 1488 1488 1489 1489 1489 1489 1490 1490 1495 1498 1501 1502 1503 1503 1504 1504 1503 1503 1503 1503 1504 1504 1505 1506 1507 1508 1509 1510 1511 1512 1513 1514 1515 1516 1518 1519 1520
1491 1494 1496 1493 1488 1490 1493 1487 1487 1487 1487 1489 1491 1491 1492 1495 1498 1500 1502 1502 1502 1503 1503 1502 1502 1502 1502 1503 1503 1503 1504 1505 1505 1506 1507 1508 1508 1509 1510 1511 1512 1513 1514 1515
1494 1495 1492 1491 1496 1505 1486 1483 1484 1486 1487 1488 1490 1493 1495 1497 1499 1501 1501 1501 1502 1502 1502 1501 1501 1500 1501 1501 1502 1502 1502 1503 1503 1503 1503 1504 1504 1505 1505 1506 1507 1508 1509 1510
1492 1494 1492 1490 1492 1489 1486 1486 1487 1489 1490 1490 1492 1494 1497 1498 1498 1499 1500 1501 1501 1501 1501 1500 1500 1499 1499 1499 1499 1500 1500 1500 1501 1501 1501 1501 1501 1501 1502 1502 1502 1503 1504 1505
1492 1492 1492 1491 1496 1494 1484 1485 1489 1491 1492 1492 1494 1495 1496 1497 1494 1496 1500 1500 1500 1499 1499 1498 1498 1497 1497 1496 1497 1497 1498 1498 1498 1497 1497 1498 1497 1498 1498 1499 1499 1500 1500 1500
1490 1492 1491 1490 1491 1484 1485 1488 1490 1496 1493 1494 1495 1496 1497 1497 1497 1500 1500 1499 1499 1498 1497 1496 1495 1495 1494 1494 1494 1494 1494 1494 1494 1494 1494 1494 1494 1494 1495 1495 1496 1496 1496 1496
1487 1486 1489 1488 1491 1489 1489 1488 1490 1493 1495 1495 1496 1497 1498 1498 1499 1499 1499 1498 1497 1497 1496 1495 1493 1493 1492 1491 1491 1491 1491 1491 1491 1491 1491 1491 1491 1491 1492 1491 1492 1492 1492 1492
1487 1487 1484 1485 1488 1491 1492 1493 1495 1496 1496 1497 1497 1497 1498 1498 1498 1498 1497 1497 1496 1495 1494 1493 1492 1491 1490 1489 1488 1488 1487 1487 1487 1487 1487 1487 1487 1487 1487 1487 1488 1488 1488 1489
1488 1492 1490 1490 1488 1491 1493 1494 1495 1496 1496 1497 1497 1497 1497 1497 1496 1496 1495 1495 1494 1493 1492 1491 1490 1489 1488 1487 1486 1485 1484 1483 1483 1483 1483 1483 1483 1483 1483 1483 1484 1484 1484 1484
1489 1491 1489 1489 1491 1492 1493 1494 1495 1495 1495 1495 1495 1495 1495 1495 1494 1494 1493 1492 1491 1490 1490 1488 1487 1486 1485 1484 1482 1482 1481 1480 1479 1479 1478 1478 1479 1479 1479 1479 1479 1479 1480 1480
1489 1489 1489 1487 1490 1491 1492 1493 1494 1494 1493 1493 1493 1493 1492 1492 1491 1491 1490 1489 1488 1487 1486 1485 1484 1483 1481 1480 1479 1478 1477 1476 1475 1474 1474 1474 1474 1475 1475 1475 1474 1474 1474 1474